Lid_Strength_Index
2 1 1 1 1 0 0 -0 -0 -1 -1 -0 0 1 1 -0 -1 -1 -2 -2 -2 -1 -2 -1 -1 -1 -0 -1 -1 -1 -0 0 -0 1 1 0 -0 -0 -0 -1 -1 -1 -1
3 2 1 1 1 1 0 0 -0 -0 -0 -0 -0 -0 -0 -0 -1 -1 -2 -2 -1 -2 -1 -1 -1 -1 -0 -1 -1 -1 1 0 -0 2 2 3 3 1 -0 -0 -1 -1 -1
4 3 2 2 1 1 1 0 -0 -0 -1 -1 -0 -1 -1 -1 -0 -0 -0 -1 -1 -1 -2 -1 -1 -1 -1 0 -1 -0 -0 1 0 -0 2 4 4 2 1 0 -0 -1 -1
4 3 3 2 1 1 0 0 -0 -0 -1 -1 -0 -1 1 1 0 -0 -0 -1 -2 -1 -1 -2 -1 -1 -1 -1 -1 -1 -0 0 1 0 0 0 1 4 5 1 1 -0 0
3 4 3 2 1 1 1 0 -0 -0 -1 -1 -1 0 0 1 -0 0 -0 -1 -1 -2 -1 -1 -1 -1 -1 -1 -1 -1 -0 -0 1 1 1 0 1 1 3 5 2 1 0
3 3 3 2 2 1 1 0 0 -0 -1 -1 -0 -0 -0 1 0 -0 1 0 -0 -1 -2 -1 -1 -2 -1 -1 -1 -1 -1 -1 -0 0 1 1 2 2 3 4 3 4 1
4 3 3 3 2 2 1 1 0 1 -0 -0 -0 -0 -0 -0 -0 0 0 1 0 0 -0 -1 -1 -1 -2 -1 -1 -1 -1 -1 -0 -0 1 1 0 0 1 2 3 2 2
4 4 4 2 3 2 1 1 1 1 0 -0 -0 -1 -1 -0 0 -0 0 0 0 0 -1 -1 -1 -1 -1 -1 -1 -1 -0 -1 -0 -0 -0 0 0 -0 0 1 2 3 2
4 4 3 3 2 2 1 1 1 1 0 0 -0 -0 -1 -0 -0 0 -1 -0 -1 -0 -1 -1 -1 -1 -1 -1 -2 -0 -1 -1 -1 -1 -1 -0 -0 -0 -0 -0 0 2 4
4 4 3 3 2 1 1 1 0 1 0 0 -0 0 -0 -0 -1 -1 -0 -1 -0 -1 -1 -1 -1 -1 -1 -1 -1 -1 -1 -1 -0 -0 -1 -1 -0 -0 -0 -0 0 0 1
4 3 3 2 2 1 2 1 1 1 1 0 -0 -0 0 -0 -0 -0 -1 -1 -1 -1 -1 -1 -1 -1 -1 -1 -1 -1 -1 -0 -1 -1 -1 -1 -1 0 0 -0 -0 1 1
4 3 3 3 2 2 2 1 1 1 0 0 -0 0 -0 -0 0 -0 -1 -1 -1 -1 -1 -1 -1 -1 -1 -1 -0 -0 -0 -0 0 0 -1 -0 -0 -1 -1 0 -0 0 -0
4 4 3 3 2 2 1 1 1 1 0 0 0 0 0 0 0 -0 -1 -1 -1 -1 -1 -1 -1 -0 -0 -0 -0 -1 -0 -0 0 0 -0 -0 -0 -0 -0 -0 0 1 1
4 4 4 3 3 2 2 2 1 1 1 1 1 1 0 0 0 -0 -1 -1 -1 -0 -1 -1 -1 -1 -1 -1 -1 -0 -0 -0 -0 -1 -0 -0 0 0 -0 -0 -0 0 1
5 4 4 3 3 3 2 2 1 1 0 1 1 1 -0 -1 -0 -0 -1 -1 -1 -1 -1 -0 -1 -1 -0 -0 -1 -0 -0 -0 -0 -1 -1 -1 0 1 1 0 0 -0 0
5 4 4 4 4 3 3 2 2 2 1 1 1 1 -0 0 0 -0 -0 0 -0 -1 -1 -0 -0 0 0 4 3 1 -0 -0 -0 0 -0 -1 -0 -0 1 1 1 1 0
5 5 4 3 3 2 2 3 2 1 2 1 2 1 1 1 1 1 0 1 0 0 0 -0 -0 -0 2 6 6 4 -0 0 -0 -0 0 0 -0 -0 -0 3 3 2 2
5 4 4 3 2 2 2 1 1 1 1 1 1 1 1 1 1 1 1 1 1 1 1 1 0 0 4 7 7 5 1 -0 -0 -0 -0 0 0 1 -0 -0 0 0 1
3 3 3 3 2 2 1 2 2 1 1 2 2 1 1 1 1 1 1 1 1 3 3 3 4 4 2 7 7 4 0 0 0 -0 -0 -0 -0 4 3 0 1 3 5
3 3 2 2 2 2 1 2 2 2 2 2 1 1 0 1 1 2 2 2 2 2 3 4 4 6 4 8 8 6 0 0 1 0 1 7 7 6 4 0 1 2 3
3 2 2 2 2 1 1 2 2 3 2 2 1 1 1 1 1 1 1 1 2 3 3 4 5 6 7 6 8 8 2 1 1 1 1 4 8 9 7 4 0 2 3
3 2 3 3 2 1 1 2 3 2 2 2 3 3 2 2 2 1 1 1 2 2 2 3 4 4 5 9 8 7 7 4 3 4 5 7 10 10 10 8 7 5 3
3 2 2 2 2 1 1 3 3 3 4 3 2 2 2 2 2 2 2 3 3 3 3 4 3 3 2 4 8 8 7 7 7 7 9 9 10 10 9 9 9 8 6
3 2 2 3 2 1 1 1 1 1 1 2 3 2 2 2 2 2 1 2 2 2 2 3 4 3 2 2 2 3 5 7 7 8 8 9 9 9 9 8 9 8 8
3 2 2 2 2 1 1 1 1 1 3 5 4 3 2 2 3 4 5 3 8 8 4 5 5 4 4 4 8 6 2 3 6 6 4 6 5 6 7 8 8 9 10
2 2 2 2 2 1 1 1 0 0 1 2 4 4 4 2 3 3 6 11 11 12 12 12 9 8 10 10 10 10 10 9 9 4 3 3 4 5 5 6 7 8 9